| time (UTC) | temp C | wind direction | speed KPH | gust KPH | rain 1hr cm | rain 24hr cm | rain mn cm | humidity % | barometer mb |
| 20260506111545 | 9 | 0.0 | 0.0 | 0.00 | 0.00 | 0.00 | 93 | 1017.7 | |
| 20260506110043 | 9 | 0.0 | 0.0 | 0.00 | 0.00 | 0.00 | 93 | 1017.5 | |
| 20260506104536 | 10 | 0.0 | 0.0 | 0.00 | 0.00 | 0.00 | 93 | 1017.3 | |
| 20260506103032 | 10 | 0.0 | 0.0 | 0.00 | 0.00 | 0.00 | 94 | 1017.0 | |
| 20260506101532 | 10 | 0.0 | 0.0 | 0.00 | 0.00 | 0.00 | 94 | 1016.8 | |
| 20260506100023 | 10 | 0.0 | 0.0 | 0.00 | 0.00 | 0.00 | 94 | 1016.7 | |
| 20260506094519 | 9 | 0.0 | 0.0 | 0.00 | 0.00 | 0.00 | 94 | 1016.6 | |
| 20260506093018 | 9 | 0.0 | 0.0 | 0.00 | 0.00 | 0.00 | 93 | 1016.5 | |
| 20260506091510 | 9 | 0.0 | 0.0 | 0.00 | 0.00 | 0.00 | 93 | 1016.5 | |
| 20260506090005 | 10 | 0.0 | 0.0 | 0.00 | 0.00 | 0.00 | 92 | 1016.5 | |
| 20260506084501 | 10 | 0.0 | 0.0 | 0.00 | 0.00 | 0.00 | 92 | 1016.4 | |
| 20260506083059 | 10 | 0.0 | 0.0 | 0.00 | 0.00 | 0.00 | 91 | 1016.4 | |
| 20260506081605 | 10 | 0.0 | 0.0 | 0.00 | 0.00 | 0.00 | 91 | 1016.4 | |
| 20260506073039 | 11 | 0.0 | 0.0 | 0.00 | 0.00 | 0.00 | 92 | 1016.1 | |
| 20260506071534 | 11 | 0.0 | 0.0 | 0.00 | 0.00 | 0.00 | 92 | 1015.9 | |
| 20260506061526 | 11 | 0.0 | 0.0 | 0.00 | 0.00 | 0.00 | 90 | 1015.6 | |
| 20260506044531 | 12 | 0.0 | 0.0 | 0.00 | 0.00 | 0.00 | 88 | 1015.1 | |
| 20260506043017 | 12 | 0.0 | 0.0 | 0.00 | 0.00 | 0.00 | 88 | 1014.9 | |
| 20260506041513 | 13 | 0.0 | 0.0 | 0.00 | 0.00 | 0.00 | 86 | 1014.9 | |
| 20260506040009 | 13 | 0.0 | 0.0 | 0.00 | 0.00 | 0.00 | 83 | 1014.7 | |
| 20260506034506 | 13 | 0.0 | 0.0 | 0.00 | 0.00 | 0.00 | 83 | 1014.5 | |
| 20260506033101 | 14 | 0.0 | 0.0 | 0.00 | 0.00 | 0.00 | 81 | 1014.4 | |
| 20260506031601 | 14 | 0.0 | 0.0 | 0.00 | 0.00 | 0.00 | 79 | 1014.2 | |
| 20260506030051 | 15 | 0.0 | 0.0 | 0.00 | 0.00 | 0.00 | 79 | 1014.3 | |
| 20260506024554 | 15 | 114 | 0.0 | 4.8 | 0.00 | 0.00 | 0.00 | 77 | 1014.2 |
| 20260506023056 | 15 | 157 | 0.0 | 1.6 | 0.00 | 0.00 | 0.00 | 76 | 1014.3 |
| 20260506021548 | 16 | 137 | 0.0 | 9.7 | 0.00 | 0.00 | 0.00 | 76 | 1014.3 |
| 20260506020047 | 16 | 248 | 0.0 | 11.3 | 0.00 | 0.00 | 0.00 | 75 | 1014.3 |
| 20260506014547 | 16 | 102 | 0.0 | 9.7 | 0.00 | 0.00 | 0.00 | 74 | 1014.3 |
| 20260506013053 | 17 | 133 | 0.0 | 17.7 | 0.00 | 0.00 | 0.00 | 73 | 1014.2 |
| 20260506011545 | 17 | 82 | 3.2 | 12.9 | 0.00 | 0.00 | 0.00 | 71 | 1014.2 |
| 20260506010055 | 18 | 210 | 3.2 | 16.1 | 0.00 | 0.00 | 0.00 | 69 | 1014.1 |
| 20260506004544 | 19 | 86 | 0.0 | 4.8 | 0.00 | 0.00 | 0.00 | 67 | 1014.2 |
| 20260506003043 | 20 | 30 | 1.6 | 9.7 | 0.00 | 0.00 | 0.00 | 63 | 1014.2 |
| 20260506001545 | 20 | 348 | 0.0 | 11.3 | 0.00 | 0.00 | 0.00 | 66 | 1014.3 |
| 20260506000039 | 20 | 216 | 0.0 | 9.7 | 0.00 | 0.00 | 0.00 | 70 | 1014.3 |
| 20260505234536 | 20 | 57 | 1.6 | 6.4 | 0.00 | 0.00 | 0.00 | 69 | 1014.5 |
| 20260505233039 | 19 | 57 | 3.2 | 12.9 | 0.00 | 0.00 | 0.00 | 69 | 1014.7 |
| 20260505224554 | 19 | 62 | 0.0 | 4.8 | 0.00 | 0.00 | 0.00 | 70 | 1015.0 |
| 20260505223053 | 19 | 39 | 1.6 | 6.4 | 0.00 | 0.00 | 0.00 | 70 | 1015.1 |
| 20260505221555 | 19 | 50 | 8.0 | 14.5 | 0.00 | 0.00 | 0.00 | 70 | 1015.2 |
| 20260505220052 | 19 | 78 | 0.0 | 4.8 | 0.00 | 0.00 | 0.00 | 69 | 1015.4 |
| 20260505214559 | 19 | 78 | 0.0 | 4.8 | 0.00 | 0.00 | 0.00 | 70 | 1015.3 |
| 20260505213048 | 19 | 104 | 0.0 | 4.8 | 0.00 | 0.00 | 0.00 | 70 | 1015.4 |
| 20260505211547 | 18 | 86 | 0.0 | 4.8 | 0.00 | 0.00 | 0.00 | 71 | 1015.5 |
| 20260505210044 | 18 | 81 | 0.0 | 9.7 | 0.00 | 0.00 | 0.00 | 75 | 1015.5 |
| 20260505204540 | 18 | 57 | 0.0 | 9.7 | 0.00 | 0.00 | 0.00 | 73 | 1015.7 |
| 20260505203040 | 18 | 104 | 1.6 | 14.5 | 0.00 | 0.00 | 0.00 | 73 | 1015.7 |
| 20260505201549 | 18 | 41 | 6.4 | 12.9 | 0.00 | 0.00 | 0.00 | 72 | 1015.7 |
| 20260505200038 | 18 | 61 | 6.4 | 16.1 | 0.00 | 0.00 | 0.00 | 72 | 1015.7 |
| 20260505194536 | 18 | 53 | 1.6 | 14.5 | 0.00 | 0.00 | 0.00 | 74 | 1015.7 |
| 20260505193034 | 18 | 79 | 1.6 | 11.3 | 0.00 | 0.00 | 0.00 | 74 | 1015.7 |
| 20260505191533 | 17 | 79 | 3.2 | 12.9 | 0.00 | 0.00 | 0.00 | 74 | 1015.7 |
| 20260505190036 | 17 | 59 | 0.0 | 9.7 | 0.00 | 0.00 | 0.00 | 73 | 1015.6 |
| 20260505184529 | 17 | 94 | 0.0 | 14.5 | 0.00 | 0.00 | 0.00 | 77 | 1015.7 |
| 20260505183025 | 17 | 42 | 1.6 | 12.9 | 0.00 | 0.00 | 0.00 | 76 | 1015.7 |
| 20260505181522 | 17 | 80 | 0.0 | 12.9 | 0.00 | 0.00 | 0.00 | 78 | 1015.6 |
| 20260505180018 | 16 | 107 | 0.0 | 9.7 | 0.00 | 0.00 | 0.00 | 80 | 1015.6 |
| 20260505174515 | 16 | 46 | 4.8 | 14.5 | 0.00 | 0.00 | 0.00 | 80 | 1015.7 |
| 20260505173014 | 15 | 80 | 9.7 | 16.1 | 0.00 | 0.00 | 0.00 | 80 | 1015.7 |
| 20260505171514 | 15 | 99 | 1.6 | 4.8 | 0.00 | 0.00 | 0.00 | 81 | 1015.7 |
| 20260505170017 | 15 | 88 | 3.2 | 14.5 | 0.00 | 0.00 | 0.00 | 80 | 1015.6 |
| 20260505164508 | 15 | 69 | 1.6 | 12.9 | 0.00 | 0.00 | 0.00 | 80 | 1015.5 |
| 20260505163010 | 15 | 78 | 0.0 | 4.8 | 0.00 | 0.00 | 0.00 | 80 | 1015.6 |
| 20260505161504 | 15 | 41 | 1.6 | 6.4 | 0.00 | 0.00 | 0.00 | 84 | 1015.5 |
| 20260505153052 | 13 | 92 | 0.0 | 4.8 | 0.00 | 0.00 | 0.00 | 86 | 1015.3 |
| 20260505151548 | 13 | 51 | 0.0 | 1.6 | 0.00 | 0.00 | 0.00 | 87 | 1015.2 |
| 20260505124508 | 8 | 0.0 | 0.0 | 0.00 | 0.00 | 0.00 | 91 | 1013.7 | |
| 20260505123005 | 8 | 0.0 | 0.0 | 0.00 | 0.00 | 0.00 | 90 | 1013.4 | |
| 20260505121559 | 8 | 0.0 | 0.0 | 0.00 | 0.00 | 0.00 | 90 | 1013.2 | |
| 20260505120110 | 8 | 0.0 | 0.0 | 0.00 | 0.00 | 0.00 | 89 | 1013.1 | |
| 20260505114550 | 9 | 0.0 | 0.0 | 0.00 | 0.00 | 0.00 | 87 | 1012.9 | |
| 20260505113047 | 9 | 0.0 | 0.0 | 0.00 | 0.00 | 0.00 | 87 | 1012.8 |